Wind_Speed
17 16 16 15 14 10 3 1 8 13 19 22 21 19 18 20 21 19 17 15 14 14 16 16 16 16 16 16 16 15 14 13 13 13 13 12 11 10 9 8 7 7 6 5 4 3 3 3 3
17 17 17 17 15 9 3 5 12 17 22 24 22 18 18 21 21 19 18 17 17 16 17 18 18 17 17 17 17 17 16 15 15 14 14 13 12 11 10 9 8 7 7 6 5 4 3 3 3
18 18 18 18 15 11 8 10 13 18 21 25 22 19 19 21 20 20 18 18 18 18 18 19 20 19 19 19 19 18 18 17 16 16 16 15 14 12 11 10 9 8 7 7 5 5 4 4 4
18 18 19 18 15 10 10 12 17 18 20 23 22 21 20 21 20 19 19 18 19 18 19 19 20 21 21 20 20 20 19 18 18 18 17 16 15 14 12 11 10 9 8 7 6 6 5 5 4
18 18 18 18 15 12 13 16 20 21 22 23 23 21 22 20 19 19 19 19 19 19 19 19 20 22 22 21 20 20 20 20 19 19 18 17 16 15 14 12 11 10 9 9 8 7 6 6 5
18 18 18 16 13 10 12 17 23 24 23 21 22 22 24 23 21 18 19 20 21 19 18 19 20 22 22 23 22 21 21 21 20 20 19 18 17 16 15 14 12 12 11 10 9 8 8 7 7
18 18 17 14 12 12 13 19 23 23 22 21 22 23 26 25 21 19 19 21 21 19 19 20 19 20 22 23 23 22 22 22 21 21 20 19 18 17 16 15 14 13 12 11 10 9 9 8 8
17 18 17 14 14 14 16 21 24 24 21 22 24 25 27 26 22 20 20 20 21 20 19 21 20 20 22 22 22 22 22 22 22 22 21 20 19 19 18 16 15 14 14 13 12 11 10 10 9
17 17 15 12 12 15 18 22 24 25 23 23 24 28 30 28 24 21 20 20 21 21 20 22 22 21 23 24 23 23 22 22 22 22 21 21 20 20 19 18 17 16 15 14 13 13 12 11 10
16 16 14 13 18 22 22 22 23 23 23 23 25 27 30 29 28 26 24 23 23 22 21 21 22 23 23 23 24 24 24 23 22 23 22 21 21 21 20 20 19 17 17 16 15 14 13 13 12
17 17 17 18 24 27 26 24 24 24 25 24 24 27 30 29 28 24 23 25 24 23 23 22 22 23 24 23 24 25 25 24 23 23 23 23 22 22 22 21 20 19 18 17 16 16 15 15 14
17 18 20 22 25 26 25 26 25 25 26 26 26 27 29 30 28 26 26 27 26 26 25 24 23 24 24 23 24 26 27 25 25 24 24 24 23 22 22 23 22 20 19 19 18 18 17 17 16
18 20 21 23 25 25 25 25 26 27 27 28 28 28 30 31 30 28 28 29 28 28 26 24 23 23 23 23 24 25 27 27 27 26 25 25 24 24 23 23 22 20 19 19 19 19 19 19 18
18 20 21 22 23 24 25 25 26 26 28 29 29 30 31 32 32 32 32 30 29 29 24 24 23 22 22 23 24 25 26 27 26 26 26 26 26 25 23 24 23 21 20 20 20 20 20 20 19
18 19 20 20 21 22 24 24 24 24 26 28 29 29 31 32 32 33 31 33 33 32 27 26 26 23 23 23 24 24 25 26 26 26 26 27 26 25 25 25 24 22 22 22 22 22 21 22 21
15 16 15 16 20 21 22 22 20 22 24 27 27 28 30 32 34 35 35 34 34 33 30 29 28 25 24 25 24 24 24 24 25 26 27 27 25 25 26 26 25 24 24 23 23 23 22 23 23
11 12 11 12 18 22 22 21 19 21 24 27 28 27 29 31 33 34 35 36 36 33 30 28 29 27 27 27 25 26 26 25 25 25 26 26 26 25 25 26 27 27 25 24 24 24 24 24 24
8 12 13 15 18 21 22 21 19 21 24 26 27 27 28 30 31 33 35 36 37 35 33 31 31 30 29 28 27 27 27 26 25 25 26 26 26 25 25 26 26 26 25 25 26 26 25 26 26
16 17 18 16 17 22 22 22 21 22 25 26 26 27 27 29 31 33 36 37 37 36 36 35 34 32 31 29 28 28 28 27 27 27 27 25 25 25 25 25 25 26 27 27 28 27 27 28 27
15 15 16 16 18 22 23 22 20 22 25 25 26 26 29 30 31 33 36 37 35 36 37 36 36 34 33 31 30 29 30 27 26 27 26 25 24 24 25 26 27 27 29 29 29 28 28 28 28
13 14 16 18 19 21 23 23 21 21 25 26 26 27 27 31 33 35 35 34 35 37 36 36 37 37 35 33 32 30 28 28 27 25 23 23 24 25 25 26 26 28 29 30 31 30 30 30 29
14 15 18 19 20 20 19 24 22 24 25 25 26 25 27 30 33 33 33 33 35 35 37 38 38 38 37 36 33 28 26 26 26 23 22 23 24 26 26 27 27 28 29 29 30 31 32 31 30
15 16 18 18 19 20 19 24 25 25 24 26 26 25 27 28 30 31 31 33 35 36 37 38 39 38 37 36 35 31 28 26 26 24 23 24 23 24 25 26 27 28 29 29 29 30 31 31 31
15 15 15 15 17 20 19 22 23 25 24 24 24 21 23 24 27 29 30 33 34 34 36 38 39 38 37 36 35 32 30 27 25 22 22 22 23 24 25 26 27 28 29 30 30 30 30 30 31
14 15 16 17 19 22 21 22 24 24 23 22 21 21 21 23 27 29 30 31 33 34 36 38 38 37 37 36 36 33 31 29 26 23 23 23 23 24 24 26 27 28 29 30 30 31 31 32 32
15 15 17 19 20 21 23 23 21 20 19 19 20 21 21 22 25 27 29 29 31 33 35 36 37 38 37 37 35 33 31 30 27 25 24 23 24 23 23 24 26 27 28 29 30 30 29 30 31
14 14 15 19 19 21 22 21 20 20 20 19 20 21 21 21 23 24 26 28 30 31 33 35 36 36 36 36 34 33 30 29 27 26 25 24 24 23 23 23 23 24 25 25 25 25 26 26 27
14 14 15 16 19 20 20 21 21 20 17 17 19 19 20 19 21 22 25 27 28 28 30 32 33 35 35 34 33 32 30 29 28 27 26 26 25 25 25 25 23 22 22 22 22 23 25 26 26
14 13 15 16 16 20 21 23 22 20 18 17 17 17 18 18 18 19 21 23 25 25 27 29 31 33 33 33 33 31 29 29 27 27 25 25 25 25 26 25 24 23 23 23 23 24 25 26 27
14 13 14 16 16 19 22 25 23 22 18 16 17 17 19 20 19 18 19 20 21 23 25 26 27 29 30 31 31 30 29 29 28 27 26 24 23 24 24 24 25 25 26 26 27 27 28 29 29
Wind_Direction
259 257 255 253 253 253 248 233 260 257 261 266 269 265 260 255 256 256 259 259 258 251 251 247 244 238 233 231 229 228 228 231 235 240 243 245 246 247 249 250 253 257 260 260 262 267 274 282 287
258 254 252 251 249 242 277 270 246 249 257 269 274 269 262 258 260 259 260 265 263 257 255 251 245 242 238 235 235 233 234 235 238 242 246 248 250 253 256 257 258 260 261 263 263 261 265 271 274
255 253 250 250 246 229 212 247 240 244 259 270 272 269 265 263 261 262 261 262 262 261 259 254 246 243 242 239 238 238 237 239 241 244 248 251 254 257 260 261 261 261 263 264 261 259 262 263 265
255 252 250 250 245 223 212 253 261 254 260 269 272 271 267 264 262 261 259 258 260 262 260 258 251 247 245 243 241 240 241 242 243 245 249 252 256 259 261 261 262 263 264 262 259 257 256 257 258
255 252 250 249 244 223 216 238 255 256 260 268 273 273 269 267 264 262 260 258 258 261 261 260 254 248 246 243 241 242 243 246 246 248 250 253 256 258 260 260 262 263 262 262 258 253 251 252 252
254 253 251 248 247 245 239 240 250 257 259 263 270 272 269 269 270 263 260 259 257 257 259 258 253 248 247 244 239 242 245 246 247 250 251 254 256 258 259 259 261 262 261 261 258 252 249 248 249
252 251 250 248 244 243 247 247 250 256 258 258 261 264 269 271 268 262 261 259 257 255 256 255 254 254 247 244 240 240 245 248 249 250 253 254 256 258 258 258 258 259 259 259 256 250 248 248 250
250 250 247 244 245 241 240 248 252 253 254 254 255 258 263 269 266 261 260 260 260 255 255 252 253 256 249 244 242 241 245 249 252 252 254 255 256 257 257 257 257 257 257 256 253 250 249 249 251
250 250 247 240 246 249 246 250 254 257 254 252 254 259 262 265 266 262 262 262 263 258 255 254 250 254 252 244 241 244 247 249 251 252 254 255 256 256 256 257 255 255 254 254 253 252 251 252 251
250 250 245 241 241 238 236 246 255 258 259 257 256 260 263 265 267 263 260 261 263 259 254 255 252 253 251 246 245 245 247 248 251 252 252 254 256 255 255 255 253 253 253 253 253 253 253 253 253
250 249 242 240 248 248 246 248 256 260 260 261 260 260 263 267 265 261 259 260 260 260 256 253 252 252 251 248 249 248 247 247 250 251 252 253 254 254 254 253 250 250 251 252 252 252 253 254 254
257 253 251 250 254 260 260 258 257 259 260 259 258 258 261 266 265 260 261 258 257 256 255 253 253 252 249 248 252 251 247 246 248 249 250 252 253 252 252 250 248 249 251 252 252 252 253 254 255
259 261 261 263 264 266 265 263 262 261 260 259 258 257 258 262 261 260 257 257 255 251 248 250 251 252 250 248 250 249 245 245 247 247 249 249 250 249 252 251 249 249 250 251 252 253 254 255 258
261 263 266 267 269 270 269 267 265 264 263 261 260 258 258 260 260 257 254 251 247 249 243 252 253 251 252 249 247 249 249 245 245 247 246 246 251 251 248 250 251 248 248 250 252 253 255 257 259
266 270 272 274 275 275 274 272 271 267 265 263 262 259 256 257 259 257 255 253 253 250 246 251 253 250 251 252 251 251 249 246 246 245 247 248 250 250 249 249 249 249 249 251 252 254 256 258 259
273 275 278 284 280 277 275 274 274 270 266 265 263 261 258 256 255 256 255 254 253 249 245 247 251 250 249 251 251 251 252 250 248 246 248 246 247 248 251 248 248 250 250 251 254 254 256 258 259
289 296 292 281 273 278 279 278 271 265 263 265 266 262 257 256 255 254 253 253 253 250 245 243 249 249 248 249 250 251 252 253 251 248 248 246 248 250 251 249 250 250 249 251 254 254 257 258 258
276 271 266 262 271 278 280 281 272 266 264 267 269 263 258 255 256 253 252 252 252 250 245 244 247 246 247 249 251 251 252 255 254 251 249 250 249 249 252 253 251 249 251 253 255 256 258 259 259
251 250 253 259 265 271 275 277 272 266 267 266 265 261 255 252 252 250 248 249 248 247 244 243 244 245 247 247 247 249 252 253 253 255 252 253 252 252 256 255 253 254 255 257 258 258 259 261 262
268 268 269 271 268 268 273 276 273 265 269 266 262 258 252 249 249 250 250 247 245 243 240 240 242 244 245 245 246 248 252 253 254 254 250 252 254 258 257 257 258 259 257 258 260 259 261 262 263
280 279 274 270 267 273 280 282 279 267 263 263 261 258 253 249 248 248 248 248 245 244 242 240 241 243 245 246 245 246 251 252 253 253 259 259 258 261 260 259 260 260 259 259 258 259 261 264 264
283 282 277 272 274 277 275 276 274 272 267 267 259 253 247 248 249 248 247 246 246 245 243 241 241 243 246 248 249 248 252 253 254 256 260 263 263 262 262 263 264 261 262 261 260 258 260 263 264
279 274 276 278 278 277 276 274 272 272 271 270 267 256 249 251 249 250 248 245 245 242 241 240 242 242 245 247 248 250 252 254 255 255 262 264 266 263 263 265 267 264 262 261 260 258 260 262 265
287 285 285 285 282 277 278 272 270 271 272 273 271 269 256 256 255 253 250 247 246 243 242 241 243 243 244 246 248 251 253 256 257 258 262 264 265 264 264 267 268 267 263 260 259 259 261 262 264
287 289 290 285 283 284 279 275 270 273 274 273 275 276 272 265 259 253 250 248 246 246 244 243 243 244 245 247 248 250 251 254 258 262 264 263 265 267 269 268 268 268 264 261 262 262 262 264 264
283 284 286 286 288 290 290 287 280 277 276 276 283 283 281 271 261 254 251 249 248 246 245 244 244 245 246 247 247 250 254 256 259 260 264 265 266 269 270 272 271 270 267 264 265 265 265 266 268
287 284 286 288 291 293 296 295 283 277 278 279 281 283 281 273 262 256 251 251 249 247 245 244 244 245 247 248 249 252 255 256 258 260 262 265 268 270 272 273 273 271 268 267 266 267 268 269 270
286 285 284 282 290 295 295 291 287 281 286 280 281 282 280 273 266 260 254 252 251 248 246 245 246 244 245 249 251 252 254 254 256 258 260 263 267 270 273 275 272 271 270 272 270 268 267 270 273
281 283 281 279 280 287 290 294 293 293 291 292 284 282 279 275 271 265 258 252 250 248 246 246 246 244 245 247 250 250 251 254 255 257 259 262 264 266 267 267 266 267 268 268 268 269 271 273 275
269 269 276 282 286 285 290 294 294 295 297 298 292 287 282 279 275 269 260 254 251 249 245 246 246 244 244 246 248 249 251 254 256 257 257 260 260 263 265 266 266 266 267 269 270 271 272 274 277
Height
5871 5872 5873 5875 5877 5879 5881 5884 5886 5886 5883 5881 5882 5882 5881 5880 5880 5883 5880 5877 5880 5882 5882 5883 5885 5886 5887 5888 5889 5890 5891 5892 5892 5893 5894 5894 5894 5894 5894 5894 5894 5894 5894 5894 5894 5894 5894 5894 5894
5868 5869 5871 5872 5874 5876 5880 5883 5884 5882 5879 5878 5879 5879 5878 5877 5877 5877 5878 5877 5879 5880 5880 5881 5882 5884 5885 5887 5888 5889 5889 5890 5891 5892 5892 5893 5893 5893 5893 5893 5893 5893 5893 5893 5893 5893 5893 5893 5893
5864 5865 5867 5869 5870 5873 5878 5880 5879 5877 5876 5876 5876 5876 5875 5874 5874 5875 5876 5876 5877 5877 5878 5878 5880 5881 5883 5884 5886 5887 5888 5888 5889 5890 5891 5891 5892 5892 5892 5892 5892 5892 5892 5892 5892 5893 5893 5893 5893
5860 5862 5864 5866 5868 5871 5875 5877 5876 5875 5874 5873 5873 5873 5872 5871 5871 5872 5873 5874 5874 5875 5875 5876 5877 5878 5880 5881 5883 5884 5885 5886 5887 5888 5889 5889 5890 5891 5891 5891 5891 5891 5891 5891 5891 5892 5892 5892 5892
5856 5858 5860 5862 5864 5867 5872 5875 5873 5872 5871 5870 5870 5869 5868 5867 5866 5869 5870 5871 5871 5872 5872 5873 5874 5875 5877 5878 5880 5881 5883 5884 5885 5885 5886 5887 5888 5889 5889 5889 5889 5890 5890 5890 5890 5891 5891 5892 5892
5852 5854 5856 5858 5861 5865 5869 5871 5870 5868 5868 5868 5867 5866 5864 5864 5864 5865 5866 5867 5868 5869 5870 5870 5871 5872 5874 5875 5877 5878 5880 5881 5882 5883 5884 5885 5886 5886 5887 5887 5887 5888 5888 5889 5889 5890 5890 5890 5891
5849 5850 5852 5854 5858 5863 5868 5867 5865 5864 5864 5865 5864 5862 5860 5860 5860 5861 5863 5863 5864 5865 5866 5867 5868 5869 5870 5872 5873 5875 5877 5878 5879 5880 5881 5882 5883 5884 5885 5885 5885 5886 5886 5887 5887 5888 5889 5889 5890
5844 5846 5848 5851 5855 5859 5862 5861 5860 5859 5860 5860 5859 5858 5856 5856 5855 5857 5858 5859 5860 5861 5862 5864 5865 5866 5867 5868 5870 5871 5873 5874 5876 5877 5878 5879 5880 5881 5882 5882 5883 5883 5884 5885 5886 5886 5887 5888 5888
5840 5843 5844 5847 5852 5855 5856 5855 5854 5853 5854 5855 5854 5853 5852 5851 5851 5852 5854 5855 5856 5858 5859 5860 5861 5862 5863 5864 5866 5868 5869 5871 5872 5874 5875 5876 5877 5878 5879 5880 5880 5881 5882 5883 5883 5884 5885 5886 5887
5836 5838 5841 5844 5846 5846 5847 5848 5848 5848 5849 5850 5850 5848 5846 5847 5848 5849 5850 5851 5852 5854 5855 5856 5857 5858 5859 5860 5862 5864 5865 5867 5868 5870 5872 5873 5874 5875 5876 5876 5877 5878 5879 5880 5881 5882 5883 5884 5885
5832 5834 5836 5837 5838 5838 5840 5841 5842 5842 5843 5844 5845 5844 5841 5843 5843 5842 5845 5846 5847 5849 5850 5852 5853 5853 5855 5857 5858 5859 5861 5862 5864 5866 5868 5869 5870 5872 5872 5873 5874 5875 5876 5877 5878 5879 5881 5882 5882
5828 5829 5830 5831 5831 5832 5834 5835 5836 5837 5838 5838 5839 5838 5838 5836 5835 5837 5840 5841 5843 5843 5844 5846 5848 5849 5851 5853 5854 5854 5856 5858 5860 5862 5864 5865 5866 5868 5868 5869 5870 5872 5873 5874 5875 5876 5877 5879 5880
5824 5825 5825 5826 5826 5827 5828 5829 5829 5830 5831 5831 5832 5833 5833 5831 5831 5832 5834 5836 5836 5836 5836 5839 5842 5844 5845 5848 5849 5849 5851 5854 5855 5857 5859 5860 5862 5864 5865 5865 5865 5868 5869 5870 5872 5873 5874 5876 5877
5820 5820 5821 5821 5821 5821 5822 5822 5823 5823 5824 5825 5826 5826 5827 5826 5827 5826 5827 5829 5830 5827 5828 5833 5835 5838 5840 5842 5843 5844 5846 5848 5850 5851 5852 5855 5857 5859 5861 5861 5862 5865 5866 5867 5868 5870 5871 5872 5873
5815 5815 5816 5816 5816 5815 5816 5817 5817 5817 5817 5818 5818 5819 5819 5819 5820 5820 5820 5823 5822 5822 5825 5828 5830 5833 5835 5837 5839 5840 5841 5842 5844 5846 5848 5850 5853 5854 5854 5856 5858 5860 5862 5864 5865 5866 5867 5868 5869
5811 5811 5811 5812 5811 5811 5812 5812 5812 5811 5811 5811 5812 5812 5813 5813 5814 5814 5816 5817 5814 5816 5821 5824 5826 5828 5831 5833 5835 5836 5837 5837 5839 5841 5844 5844 5847 5849 5850 5853 5854 5856 5858 5860 5861 5862 5863 5864 5865
5807 5808 5809 5811 5808 5807 5806 5806 5806 5805 5806 5804 5805 5805 5806 5806 5807 5807 5808 5809 5809 5810 5813 5817 5821 5823 5826 5828 5830 5832 5833 5834 5834 5835 5838 5838 5841 5844 5844 5847 5850 5851 5852 5854 5856 5858 5859 5859 5860
5806 5807 5808 5808 5806 5803 5802 5801 5801 5800 5799 5799 5799 5799 5798 5799 5800 5801 5801 5803 5804 5806 5808 5812 5814 5817 5820 5822 5824 5825 5827 5829 5829 5830 5833 5834 5836 5839 5840 5842 5844 5846 5848 5850 5851 5852 5853 5854 5855
5800 5801 5801 5802 5801 5799 5797 5796 5796 5795 5794 5793 5793 5792 5792 5792 5793 5793 5794 5795 5797 5800 5803 5806 5808 5811 5814 5816 5818 5819 5821 5823 5824 5825 5828 5829 5831 5832 5835 5837 5839 5841 5843 5844 5845 5847 5848 5849 5850
5795 5795 5796 5797 5796 5794 5791 5790 5790 5788 5787 5787 5786 5784 5785 5785 5786 5785 5786 5787 5790 5791 5795 5799 5802 5805 5808 5810 5812 5813 5816 5817 5818 5819 5821 5824 5826 5828 5830 5832 5834 5836 5837 5839 5840 5841 5842 5843 5844
5791 5791 5791 5791 5790 5787 5786 5785 5785 5783 5781 5780 5780 5779 5779 5779 5779 5778 5779 5779 5782 5783 5787 5791 5795 5798 5800 5802 5804 5806 5809 5812 5814 5816 5817 5819 5821 5823 5825 5826 5827 5830 5831 5833 5834 5835 5836 5837 5838
5787 5787 5786 5785 5784 5782 5782 5779 5779 5777 5774 5773 5772 5771 5771 5771 5772 5772 5773 5773 5775 5778 5781 5785 5788 5791 5793 5796 5799 5801 5804 5807 5809 5811 5813 5814 5816 5817 5819 5820 5822 5823 5825 5826 5828 5829 5830 5831 5832
5783 5782 5781 5779 5778 5777 5776 5775 5773 5770 5769 5767 5764 5763 5764 5765 5765 5766 5767 5768 5769 5772 5775 5778 5781 5784 5787 5790 5793 5796 5798 5801 5804 5806 5807 5809 5810 5812 5813 5815 5816 5817 5819 5820 5821 5822 5823 5824 5825
5778 5777 5776 5774 5773 5772 5771 5769 5767 5764 5762 5760 5758 5757 5757 5759 5760 5761 5762 5763 5764 5766 5769 5771 5773 5777 5781 5784 5787 5791 5793 5796 5797 5800 5802 5803 5805 5807 5808 5809 5810 5811 5812 5813 5814 5815 5816 5817 5818
5775 5774 5772 5771 5769 5767 5765 5762 5761 5758 5756 5755 5753 5752 5752 5754 5755 5755 5756 5757 5758 5760 5762 5764 5767 5771 5774 5778 5781 5784 5787 5790 5793 5795 5796 5797 5799 5801 5802 5803 5804 5805 5806 5806 5808 5808 5810 5811 5811
5771 5770 5769 5767 5765 5762 5759 5757 5755 5752 5750 5749 5749 5748 5748 5749 5749 5749 5750 5751 5752 5754 5756 5758 5761 5765 5768 5771 5774 5778 5781 5784 5787 5789 5790 5792 5794 5795 5796 5797 5798 5799 5799 5800 5801 5802 5803 5804 5805
5767 5766 5766 5763 5761 5758 5756 5753 5750 5747 5746 5745 5745 5744 5743 5743 5743 5744 5745 5745 5746 5748 5750 5753 5755 5759 5762 5766 5769 5772 5775 5778 5781 5783 5785 5787 5788 5790 5791 5792 5792 5793 5793 5794 5795 5796 5797 5798 5798
5765 5763 5762 5760 5758 5755 5753 5750 5746 5742 5742 5740 5740 5740 5739 5738 5738 5738 5739 5740 5741 5743 5745 5747 5750 5753 5756 5760 5763 5766 5769 5772 5775 5778 5780 5781 5783 5785 5786 5787 5787 5788 5788 5789 5789 5790 5791 5792 5792
5761 5760 5758 5757 5755 5753 5750 5748 5743 5741 5739 5738 5736 5735 5735 5735 5735 5734 5734 5734 5736 5738 5740 5742 5745 5747 5751 5755 5758 5761 5763 5766 5769 5771 5773 5775 5777 5779 5780 5781 5782 5783 5783 5784 5784 5785 5786 5786 5786
5757 5756 5755 5754 5752 5750 5747 5746 5740 5737 5735 5734 5733 5732 5731 5731 5731 5730 5729 5730 5732 5733 5735 5737 5739 5742 5746 5749 5752 5755 5757 5760 5763 5765 5767 5769 5771 5772 5774 5775 5776 5777 5778 5778 5779 5780 5780 5780 5780